User: anonymous   Login
Location: Unspecified
(0.0000°N, 0.0000°E)
Time: 19:03:18
(UTC+00:00)
Language:

FIREBIRD 3 - Orbit

View from above orbital plane
View from above orbital plane
View from above satellite
View from above satellite

Ground track
Ground track

The orbit data is extracted from the following two-line orbital elements,

1 40377U 15003B   17084.92863284 +.00003183 +00000-0 +14052-3 0  9992
2 40377 099.1163 252.3380 0136839 278.1477 080.4248 15.14758063118399
Epoch (UTC): 25 March 2017 22:17:13
Eccentricity: 0.0136839
inclination: 99.1163°
perigee height: 427 km
apogee height: 616 km
right ascension of ascending node: 252.3380°
argument of perigee: 278.1477°
revolutions per day: 15.14758063
mean anomaly at epoch: 80.4248°
orbit number at epoch: 11839

The dashed part of the orbit path shows where the satellite is in the earth's shadow,  

DLR